Tuesday, October 21, 2014
12:05 UTC
  |  Log In   |  Register Free
Airport Search:

Comanche County-City Airport
(KMKN)

Comanche County-City Airport Diagram
No Airport Diagram Available

FAA data valid effective September 18, 2014 - November 13, 2014 (unless otherwise noted).

 
 
 
 
 
 
 
 
 
 
 
 
 
 

Current Aviation Weather for Comanche County-City Airport (KMKN)

The most recent METAR observation for KMKN was updated at: 1115
METAR Summary (Translated METAR)
KMKN
211055Z AUTO 00000KT 10SM CLR 15/15 A3007 RMK AO2 T01500150
KBWD
211055Z AUTO 00000KT 9SM FEW043 12/12 A3008 RMK AO2
(19.7 nm SW from KMKN)
KMNZ
211055Z AUTO 00000KT 10SM CLR 15/15 A3008 RMK AO2 T01470147
(27.6 nm SE from KMKN)
TAF
No TAF information found within 50 nm of KMKN
  Airport Weather Conditions for KMKN

 Current Weather at MKN
61° F
Fair
North winds at 0.0 mph
MKN NOAA Radar

Pressure: 30.07 in
Humidity: 93%
Wind: Calm
Dew Point: 58.6°F
Visibility: 10.00 mi


Airport Weather Forecast for KMKN

Translated METAR and TAF for KMKN
Translated METAR for KMKN (1200 UTC 21 October 2014)
found at http://aviationweather.gov/adds/metars/
 
METAR text: KMKN 211155Z AUTO 00000KT 10SM CLR 14/14 A3009 RMK AO2 T01400140 10171 20137
Conditions at: KMKN (COMANCHE , TX, US) observed 1155 UTC 21 October 2014
Temperature: 14.0°C (57°F)
Dewpoint: 14.0°C (57°F) [RH = 100%]
Pressure (altimeter): 30.09 inches Hg (1019.0 mb)
Winds: calm
Visibility: 10 or more miles (16+ km)
Ceiling: at least 12,000 feet AGL
Clouds: sky clear below 12,000 feet AGL
Weather: automated observation with no human augmentation;
there may or may not be significant weather present at this time
Translated TAF for KMKN

There is no translated TAF available for this airport

Find All Airport Services Find A Hotel Find A Rental Car Find A Golf Course Find A Restaurant $100 Hamburger



FBO's on the Field
FBO Company Facility Photos Services Transportation Aviation Fuel Prices: Prices include tax
Catering Weather Repair Courtesy Rental Type 100LL JetA JetA+ MOGAS 8087
 
Comanche County/City Airport

This FBO has not yet been rated
FS:Avfuel
Last Updated: Oct-17
Login to update fuel prices
SS:
Contact Comanche County/City AirportMore FBO Information
 
Add another FBO Facility Photos Catering Weather Repair Courtesy Rental Type 100LL JetA JetA+ MOGAS 8087
Services Transportation Aviation Fuel Prices: Prices include tax


model-print
model-print
model-print
model-print